When you browse on this site, cookies collect data to enhance your experience and personalize the content and advertising you see.
Visit our Privacy Policy to learn more. By continuing to use the site, you agree to this use of cookies and data.
  • In Hungary
  • List of Countries
  • For 7 days
  • Water Temperature
  • Satellite Maps
  • Weather Map
  • News
  • Weather Widgets
  • user-avatar
    Login

    Hourly Weather Barcelona

    Today, 23 January, Wednesday

    Time Temperature Precipitation Wind Pressure Humidity
    00:00 +26°C° 0.1 mm 6 mps 761 mmHg 80%
    01:00 +26°C° 0.1 mm 5 mps 761 mmHg 81%
    02:00 +26°C° 0.1 mm 5 mps 761 mmHg 82%
    03:00 +26°C° 0.1 mm 4 mps 761 mmHg 82%
    04:00 +26°C° 0.1 mm 4 mps 761 mmHg 82%
    05:00 +26°C° 0.1 mm 3 mps 761 mmHg 81%
    06:00 +26°C° 0.1 mm 3 mps 761 mmHg 79%
    07:00 +27°C° 0.1 mm 3 mps 762 mmHg 76%
    08:00 +27°C° 0.1 mm 3 mps 762 mmHg 73%
    09:00 +30°C° 0 mm 3 mps 762 mmHg 64%
    10:00 +33°C° 0 mm 3 mps 762 mmHg 55%
    11:00 +35°C° 0 mm 3 mps 762 mmHg 45%
    12:00 +35°C° 0 mm 4 mps 762 mmHg 47%
    13:00 +34°C° 0 mm 5 mps 761 mmHg 49%
    14:00 +33°C° 0 mm 5 mps 760 mmHg 51%
    15:00 +33°C° 0 mm 5 mps 760 mmHg 52%
    16:00 +33°C° 0 mm 6 mps 759 mmHg 52%
    17:00 +33°C° 0 mm 6 mps 759 mmHg 52%
    18:00 +32°C° 0 mm 6 mps 759 mmHg 58%
    19:00 +29°C° 0 mm 6 mps 759 mmHg 64%
    20:00 +28°C° 0 mm 6 mps 760 mmHg 70%
    21:00 +27°C° 0 mm 5 mps 760 mmHg 73%
    22:00 +27°C° 0 mm 5 mps 760 mmHg 76%
    23:00 +26°C° 0 mm 5 mps 761 mmHg 78%

    Tomorrow, 24 January, Thursday

    Time Temperature Precipitation Wind Pressure Humidity
    00:00 +26°C° 0 mm 4 mps 761 mmHg 80%
    01:00 +25°C° 0 mm 4 mps 760 mmHg 83%
    02:00 +25°C° 0 mm 3 mps 760 mmHg 85%
    03:00 +24°C° 0 mm 3 mps 760 mmHg 86%
    04:00 +24°C° 0 mm 2 mps 760 mmHg 87%
    05:00 +24°C° 0 mm 2 mps 760 mmHg 88%
    06:00 +25°C° 0 mm 2 mps 760 mmHg 82%
    07:00 +26°C° 0 mm 1 mps 761 mmHg 75%
    08:00 +27°C° 0 mm 1 mps 761 mmHg 69%
    09:00 +31°C° 0 mm 1 mps 761 mmHg 57%
    10:00 +35°C° 0 mm 2 mps 761 mmHg 45%
    11:00 +39°C° 0 mm 2 mps 762 mmHg 33%
    12:00 +38°C° 0 mm 3 mps 761 mmHg 35%
    13:00 +37°C° 0 mm 4 mps 760 mmHg 36%
    14:00 +37°C° 0 mm 5 mps 759 mmHg 37%
    15:00 +36°C° 0 mm 5 mps 759 mmHg 41%
    16:00 +35°C° 0 mm 5 mps 758 mmHg 44%
    17:00 +34°C° 0 mm 6 mps 758 mmHg 47%
    18:00 +32°C° 0 mm 6 mps 758 mmHg 53%
    19:00 +30°C° 0 mm 6 mps 759 mmHg 59%
    20:00 +28°C° 0 mm 6 mps 759 mmHg 65%
    21:00 +27°C° 0 mm 5 mps 760 mmHg 66%
    22:00 +27°C° 0 mm 5 mps 760 mmHg 66%
    23:00 +26°C° 0 mm 4 mps 760 mmHg 67%

    Day after tomorrow, 25 January, Friday

    Time Temperature Precipitation Wind Pressure Humidity
    00:00 +25°C° 0 mm 4 mps 760 mmHg 70%
    01:00 +25°C° 0 mm 3 mps 760 mmHg 73%
    02:00 +24°C° 0 mm 3 mps 760 mmHg 77%
    03:00 +24°C° 0 mm 2 mps 760 mmHg 78%
    04:00 +23°C° 0 mm 2 mps 760 mmHg 80%
    05:00 +23°C° 0 mm 1 mps 759 mmHg 82%
    06:00 +24°C° 0 mm 1 mps 760 mmHg 76%
    07:00 +25°C° 0 mm 1 mps 761 mmHg 70%
    08:00 +26°C° 0 mm 1 mps 761 mmHg 63%
    09:00 +30°C° 0 mm 1 mps 761 mmHg 53%
    10:00 +33°C° 0 mm 1 mps 761 mmHg 42%
    11:00 +38°C° 0 mm 2 mps 761 mmHg 31%
    12:00 +38°C° 0 mm 3 mps 760 mmHg 33%
    13:00 +38°C° 0 mm 4 mps 759 mmHg 34%
    14:00 +38°C° 0 mm 4 mps 758 mmHg 35%
    15:00 +37°C° 0 mm 5 mps 758 mmHg 39%
    16:00 +35°C° 0 mm 5 mps 757 mmHg 43%
    17:00 +34°C° 0 mm 5 mps 757 mmHg 47%
    18:00 +32°C° 0 mm 5 mps 757 mmHg 53%
    19:00 +30°C° 0 mm 5 mps 758 mmHg 58%
    20:00 +28°C° 0 mm 6 mps 758 mmHg 63%
    21:00 +28°C° 0 mm 5 mps 759 mmHg 64%
    22:00 +27°C° 0 mm 5 mps 759 mmHg 65%
    23:00 +26°C° 0 mm 4 mps 759 mmHg 65%

    26 January, Saturday

    Time Temperature Precipitation Wind Pressure Humidity
    00:00 +26°C° 0 mm 3 mps 759 mmHg 69%
    01:00 +25°C° 0 mm 3 mps 759 mmHg 72%
    02:00 +24°C° 0 mm 2 mps 759 mmHg 75%
    03:00 +24°C° 0 mm 2 mps 759 mmHg 76%
    04:00 +23°C° 0 mm 1 mps 759 mmHg 77%
    05:00 +23°C° 0 mm 1 mps 759 mmHg 78%
    06:00 +24°C° 0 mm 1 mps 759 mmHg 72%
    07:00 +26°C° 0 mm 1 mps 760 mmHg 67%
    08:00 +25°C° 0 mm 0 mps 760 mmHg 61%
    09:00 +31°C° 0 mm 1 mps 761 mmHg 52%
    10:00 +34°C° 0 mm 1 mps 761 mmHg 42%
    11:00 +39°C° 0 mm 2 mps 761 mmHg 32%
    12:00 +38°C° 0 mm 3 mps 760 mmHg 35%
    13:00 +37°C° 0 mm 4 mps 759 mmHg 38%
    14:00 +36°C° 0 mm 4 mps 758 mmHg 40%
    15:00 +35°C° 0 mm 5 mps 757 mmHg 44%
    16:00 +34°C° 0 mm 5 mps 757 mmHg 47%
    17:00 +34°C° 0 mm 6 mps 756 mmHg 51%
    18:00 +32°C° 0 mm 6 mps 757 mmHg 58%
    19:00 +29°C° 0 mm 6 mps 757 mmHg 64%
    20:00 +28°C° 0 mm 6 mps 757 mmHg 71%
    21:00 +27°C° 0 mm 6 mps 758 mmHg 73%
    22:00 +27°C° 0 mm 5 mps 758 mmHg 75%
    23:00 +26°C° 0 mm 4 mps 759 mmHg 77%

    27 January, Sunday

    Time Temperature Precipitation Wind Pressure Humidity
    00:00 +26°C° 0 mm 4 mps 759 mmHg 77%
    01:00 +26°C° 0 mm 3 mps 758 mmHg 77%
    02:00 +26°C° 0 mm 3 mps 758 mmHg 77%
    03:00 +25°C° 0 mm 3 mps 758 mmHg 79%
    04:00 +25°C° 0 mm 3 mps 758 mmHg 80%
    05:00 +24°C° 0 mm 2 mps 758 mmHg 82%
    06:00 +25°C° 0 mm 2 mps 758 mmHg 75%
    07:00 +27°C° 0 mm 2 mps 759 mmHg 68%
    08:00 +28°C° 0 mm 1 mps 760 mmHg 61%
    09:00 +31°C° 0 mm 2 mps 760 mmHg 51%
    10:00 +36°C° 0 mm 2 mps 760 mmHg 40%
    11:00 +39°C° 0 mm 2 mps 760 mmHg 29%
    12:00 +39°C° 0 mm 3 mps 759 mmHg 29%
    13:00 +39°C° 0 mm 3 mps 758 mmHg 29%
    14:00 +40°C° 0 mm 4 mps 757 mmHg 29%
    15:00 +38°C° 0 mm 4 mps 757 mmHg 34%
    16:00 +36°C° 0 mm 5 mps 756 mmHg 39%
    17:00 +34°C° 0 mm 5 mps 756 mmHg 44%
    18:00 +32°C° 0 mm 5 mps 756 mmHg 52%
    19:00 +30°C° 0 mm 5 mps 757 mmHg 61%
    20:00 +28°C° 0 mm 5 mps 757 mmHg 69%
    21:00 +27°C° 0 mm 5 mps 758 mmHg 70%
    22:00 +27°C° 0 mm 5 mps 758 mmHg 71%
    23:00 +27°C° 0 mm 4 mps 759 mmHg 73%

    28 January, Monday

    Time Temperature Precipitation Wind Pressure Humidity
    00:00 +26°C° 0 mm 4 mps 758 mmHg 71%
    01:00 +26°C° 0 mm 3 mps 758 mmHg 70%
    02:00 +26°C° 0 mm 3 mps 758 mmHg 68%
    03:00 +26°C° 0 mm 3 mps 758 mmHg 71%
    04:00 +25°C° 0 mm 2 mps 758 mmHg 74%
    05:00 +24°C° 0 mm 2 mps 758 mmHg 76%
    06:00 +25°C° 0 mm 2 mps 758 mmHg 71%
    07:00 +26°C° 0 mm 1 mps 759 mmHg 65%
    08:00 +27°C° 0 mm 1 mps 759 mmHg 59%
    09:00 +31°C° 0 mm 1 mps 759 mmHg 49%
    10:00 +36°C° 0 mm 2 mps 760 mmHg 38%
    11:00 +39°C° 0 mm 2 mps 760 mmHg 28%
    12:00 +39°C° 0 mm 3 mps 759 mmHg 29%
    13:00 +39°C° 0 mm 3 mps 758 mmHg 30%
    14:00 +40°C° 0 mm 4 mps 757 mmHg 31%
    15:00 +38°C° 0 mm 4 mps 756 mmHg 36%
    16:00 +36°C° 0 mm 4 mps 756 mmHg 40%
    17:00 +34°C° 0 mm 5 mps 755 mmHg 45%
    18:00 +33°C° 0 mm 5 mps 756 mmHg 53%
    19:00 +30°C° 0 mm 4 mps 756 mmHg 61%
    20:00 +28°C° 0 mm 4 mps 757 mmHg 69%
    21:00 +28°C° 0 mm 4 mps 757 mmHg 71%
    22:00 +27°C° 0 mm 4 mps 758 mmHg 73%
    23:00 +27°C° 0 mm 4 mps 758 mmHg 74%
    Show more